Temperature
25 26 25 24 23 22 22 21 21 20 17 14 13 12 11 10 10 10 10 10 9 9 9 9 9 9 9 9 8 8 8 8 8 8 9 10 10 11 11 12 12 12 12 12
24 25 24 21 19 19 18 18 18 16 14 14 12 11 10 10 10 10 10 11 11 10 10 10 10 9 9 9 8 8 8 8 8 8 8 8 9 10 10 11 12 12 12 12
24 25 23 20 16 17 16 15 16 15 14 13 11 11 11 12 12 12 12 12 12 11 11 11 10 10 10 9 9 8 8 8 8 8 8 8 9 9 9 10 11 11 11 12
24 23 22 15 16 16 15 14 14 13 13 13 13 13 13 13 14 13 12 12 11 11 11 11 10 10 10 10 9 9 9 9 9 9 9 9 9 9 9 9 10 10 11 11
23 23 19 16 16 16 15 15 14 14 15 14 14 13 14 14 12 11 11 11 10 10 10 10 10 9 9 9 9 9 9 9 9 9 9 9 9 9 9 9 9 10 10 10
21 20 20 16 16 16 17 15 14 14 14 13 13 13 13 11 11 10 10 10 9 9 9 9 9 9 9 9 9 9 9 9 9 9 9 8 8 8 8 8 8 9 9 10
20 20 17 16 16 16 16 16 14 13 13 12 12 11 11 10 10 10 9 9 9 9 8 8 8 8 8 8 8 8 8 8 8 8 8 8 8 8 8 8 8 8 8 9
19 19 17 15 16 15 15 14 13 12 11 11 11 10 10 10 9 9 9 9 8 8 8 7 7 7 7 7 7 7 7 7 7 7 7 8 8 8 7 8 8 8 8 8
17 18 16 15 14 14 13 12 12 11 11 10 10 10 9 9 9 9 9 8 8 7 7 6 6 6 6 6 6 6 6 6 6 6 6 7 7 7 7 7 8 9 9 8
16 17 16 14 14 13 12 11 11 10 10 10 9 9 9 9 9 8 8 8 7 7 6 6 5 5 5 5 5 5 5 5 5 5 6 6 6 7 8 8 8 9 9 8
16 16 15 14 13 12 11 10 10 10 10 9 9 9 9 8 8 8 8 7 7 6 5 5 5 5 5 5 5 5 5 5 5 5 5 5 6 6 7 8 8 8 8 7
15 14 13 13 12 11 11 10 10 9 9 9 9 9 9 8 8 8 7 7 6 5 4 4 4 4 4 4 4 4 4 4 4 4 4 5 5 6 7 7 7 7 7 7
13 13 12 11 11 11 10 10 10 9 9 9 9 9 8 8 7 7 7 6 5 4 4 4 4 4 4 4 4 4 4 4 4 4 4 4 5 6 7 7 7 7 7 7
12 11 11 11 10 10 10 9 9 9 9 9 8 8 8 7 7 6 6 5 4 3 3 3 3 4 4 4 4 3 3 3 3 4 4 4 5 6 7 7 6 6 6 6
12 11 10 10 10 10 9 9 9 9 8 8 8 7 7 6 6 6 5 4 3 3 3 3 3 3 4 3 3 3 3 3 3 3 4 4 5 6 7 7 7 6 6 6
10 10 10 10 9 9 9 8 8 8 8 7 7 7 6 6 5 4 4 3 3 3 3 3 3 3 3 3 3 3 3 3 3 3 4 4 5 6 7 6 6 6 5 5
10 10 10 9 9 8 8 8 7 7 7 6 6 6 5 4 4 3 3 3 2 3 3 3 4 4 3 3 3 3 3 3 3 4 4 5 6 6 6 6 5 5 5 5
10 9 9 8 8 7 7 7 7 6 6 5 5 4 4 3 3 3 3 3 3 3 3 4 4 4 3 3 3 3 3 4 4 4 5 6 6 6 6 5 5 5 5 5
9 9 8 8 7 7 6 6 6 5 5 5 4 3 3 2 3 3 3 3 3 3 4 4 4 4 4 3 3 4 4 4 4 5 5 5 6 5 5 5 5 5 5 6
9 8 8 7 7 6 6 6 5 5 4 4 3 2 2 2 3 3 3 3 3 4 4 4 5 4 4 4 4 4 4 5 5 5 6 6 5 5 5 5 5 6 6 7
9 8 7 7 6 6 5 5 4 4 3 3 2 2 2 3 3 3 3 3 4 4 5 5 5 5 5 5 5 5 5 5 6 6 6 6 6 6 6 6 6 7 7 8
8 7 6 6 5 5 5 4 4 3 3 2 2 2 3 3 3 3 4 4 5 5 6 6 6 5 5 5 5 6 6 6 6 6 6 6 6 7 7 7 7 8 8 9
7 6 6 5 5 5 5 4 4 3 2 2 3 3 3 3 3 3 4 5 6 6 6 6 6 6 6 6 6 6 6 6 7 7 7 7 7 7 8 8 8 9 9 10
6 6 5 5 4 5 4 4 3 3 3 3 3 3 3 3 4 5 5 6 6 7 7 7 7 7 7 6 7 7 7 7 7 7 8 8 8 8 8 9 9 10 10 10
6 5 5 4 5 5 4 4 3 3 3 3 3 3 3 3 4 5 6 6 7 7 7 7 7 7 7 7 7 7 7 8 8 8 8 8 9 9 9 9 10 10 10 10
6 5 5 4 4 4 4 4 3 3 3 3 3 3 3 4 5 6 6 7 8 8 8 8 8 8 8 8 8 8 8 9 9 9 9 9 10 10 10 11 11 11 11 11
6 6 5 5 5 4 4 4 3 3 3 3 3 3 3 4 5 6 6 7 8 8 9 9 9 9 9 9 9 9 9 10 10 10 10 10 11 11 11 12 12 12 12 12
Wind_Speed
12 12 8 6 9 9 8 9 10 9 6 9 11 12 14 16 18 19 18 16 14 13 12 11 10 10 10 11 10 9 10 11 12 12 12 12 12 13 14 15 16 16 16 14
11 7 3 7 12 8 7 6 5 3 3 8 12 12 14 17 19 20 20 19 19 18 17 16 16 15 14 15 14 13 12 13 13 13 14 13 13 13 14 14 14 15 16 15
9 4 8 2 11 9 4 3 4 3 7 14 15 15 16 19 22 21 21 22 23 23 22 21 21 20 19 18 17 16 16 16 15 14 14 14 14 14 13 13 13 14 15 16
9 11 7 7 6 7 4 3 1 4 11 15 18 21 22 24 21 20 24 26 26 25 25 24 24 23 22 21 20 19 18 17 17 17 16 15 14 14 12 12 12 12 13 14
7 10 4 5 7 11 11 13 8 11 20 23 25 26 23 19 23 26 28 27 26 26 27 26 25 25 24 23 22 21 21 20 19 18 17 16 16 15 13 12 11 11 11 12
6 8 4 5 9 13 13 11 2 19 25 26 27 24 22 25 27 27 27 26 26 27 27 26 25 24 24 24 23 22 22 21 20 18 18 17 17 16 15 13 13 11 10 9
8 7 3 6 12 15 12 13 21 24 25 25 25 23 27 30 29 28 28 28 27 27 25 24 24 24 25 25 24 23 21 21 21 19 17 18 17 16 15 15 14 13 12 8
7 6 2 8 12 11 15 21 23 24 24 25 26 28 28 29 29 29 28 28 28 26 25 23 23 23 24 24 23 22 21 21 20 19 18 17 17 16 15 15 15 14 12 9
5 5 4 9 13 15 18 22 23 22 25 26 28 30 30 29 29 28 28 27 26 26 25 23 22 21 24 23 22 22 21 21 20 20 18 17 16 16 15 14 14 13 11 8
6 6 10 16 16 17 20 22 23 23 25 27 29 30 30 29 28 28 28 27 25 26 25 24 23 23 23 23 22 22 21 19 17 17 16 16 15 15 15 14 13 12 10 8
9 11 15 14 18 21 21 22 23 24 26 27 29 30 29 28 28 27 27 26 25 24 24 25 24 24 24 23 22 22 21 18 16 15 15 14 15 14 15 14 10 9 8 6
8 13 16 21 20 22 22 23 24 26 28 27 27 29 30 28 27 27 28 27 26 26 26 26 25 25 23 22 21 20 18 17 14 12 12 13 14 14 15 14 8 8 6 5
12 17 18 21 22 23 21 24 26 26 27 28 27 28 29 29 27 28 29 29 27 26 26 25 25 25 23 21 18 18 17 15 12 11 12 12 14 14 12 12 11 12 11 10
14 15 19 21 22 23 24 26 26 27 27 27 28 29 29 29 29 30 31 29 26 26 26 25 24 23 22 18 16 16 15 14 13 11 12 12 14 14 12 11 11 10 10 12
14 16 19 21 22 23 25 25 26 26 27 28 29 29 29 30 30 31 30 26 25 25 25 24 23 21 18 16 15 14 12 9 9 10 11 12 13 13 11 10 8 7 7 9
17 18 19 21 23 25 26 26 26 27 29 29 29 29 30 30 30 30 28 25 25 26 25 23 21 18 16 13 12 10 8 9 10 9 10 11 12 11 10 8 7 7 7 8
17 19 20 22 24 25 26 26 26 27 29 29 30 30 30 30 30 29 27 26 25 25 23 20 18 14 12 10 9 6 5 6 9 9 9 9 9 9 7 6 5 6 7 9
15 18 20 22 23 24 26 26 27 27 27 28 29 29 29 29 29 28 27 26 25 23 19 16 14 12 10 8 5 4 3 4 5 7 7 6 5 5 4 4 6 8 8 10
16 18 20 21 22 22 24 24 25 26 26 26 27 28 28 28 28 27 27 26 23 21 18 16 13 10 7 4 4 2 2 3 3 4 4 3 3 3 3 5 7 8 9 12
16 17 19 21 22 22 23 23 24 23 24 25 26 26 27 28 28 27 26 22 17 16 18 16 12 7 4 2 3 2 1 2 2 2 2 3 4 5 5 6 7 8 11 16
16 17 19 20 21 22 22 22 21 23 24 25 25 26 27 28 27 24 22 19 19 20 18 14 7 4 3 2 3 1 1 1 2 2 3 4 5 5 5 5 6 10 15 17
15 16 17 19 20 21 20 19 20 22 24 24 25 25 26 26 26 23 21 17 19 22 15 8 5 5 4 4 2 1 1 1 1 2 2 3 2 1 3 5 8 12 15 15
13 14 16 17 19 19 19 19 21 21 22 23 24 24 23 22 19 18 20 18 18 21 12 8 7 4 4 3 2 2 2 2 2 1 1 1 1 2 4 7 9 12 14 14
12 13 14 15 17 17 18 20 20 19 21 21 21 22 20 18 18 17 16 20 23 21 12 10 9 5 4 3 3 3 3 3 3 3 2 2 3 4 7 9 10 11 12 14
12 12 13 14 14 14 16 18 19 19 20 19 22 23 19 16 16 17 18 19 22 19 14 12 12 8 5 4 3 3 2 2 3 2 2 3 5 7 9 10 11 12 12 12
10 10 10 11 11 12 13 14 15 16 17 18 19 19 18 17 18 17 16 19 22 19 16 13 13 12 9 8 6 4 2 2 2 3 5 6 8 9 10 11 13 11 11 11
9 8 8 9 10 11 13 13 15 16 16 17 18 18 17 17 17 17 18 16 16 15 14 13 13 13 12 11 10 9 7 5 5 6 7 8 8 9 9 11 10 10 10 10
Wind_Direction
282 290 291 323 351 346 332 328 310 346 44 28 360 339 327 320 315 310 307 304 299 294 291 286 284 282 281 283 284 287 294 295 294 296 298 300 303 304 304 295 279 263 248 239
282 287 283 70 26 17 19 0 354 7 59 360 332 314 301 296 294 293 295 299 300 297 294 292 290 286 281 275 272 267 268 272 275 281 287 291 294 297 298 297 288 272 253 237
300 325 249 94 24 15 35 28 357 338 322 317 307 299 294 295 297 297 300 305 307 307 306 303 301 298 292 286 281 275 272 270 265 263 268 274 282 289 296 302 298 283 263 244
301 300 293 81 51 18 333 239 259 308 309 305 304 307 305 300 307 315 316 314 310 307 305 302 301 300 297 293 287 281 278 277 273 270 270 269 271 276 284 292 296 294 279 258
319 311 114 116 21 352 315 284 247 307 321 322 321 313 307 323 329 318 311 308 306 304 303 302 301 298 295 291 286 280 278 277 276 272 271 270 269 272 277 282 286 289 287 277
336 318 327 52 359 329 304 279 311 324 321 321 320 314 316 323 315 310 309 306 304 303 301 299 298 297 294 290 286 282 280 278 275 272 268 266 266 267 270 275 276 279 281 281
338 326 70 12 338 326 311 319 326 319 317 316 315 310 310 312 311 310 307 305 305 303 302 301 300 297 291 287 284 283 282 279 274 270 266 263 263 262 262 264 269 273 275 270
336 327 359 0 334 327 312 313 313 314 313 313 311 308 310 310 310 309 308 307 307 306 305 304 302 298 292 287 286 285 281 276 271 266 263 262 259 257 256 258 261 264 264 258
330 318 323 324 315 312 316 313 312 312 312 312 310 309 311 311 310 309 308 308 309 307 305 303 300 295 290 288 286 284 280 275 270 264 258 255 257 256 252 247 252 259 259 248
295 287 300 310 310 318 317 312 309 309 309 309 308 309 310 310 309 309 308 309 309 306 303 300 297 293 288 286 284 280 276 273 269 263 256 252 250 250 248 245 243 249 254 244
289 307 311 309 321 321 316 312 309 309 309 309 310 309 310 309 309 308 308 308 308 305 302 299 297 294 291 288 285 280 276 270 264 259 254 255 254 250 249 244 243 248 258 243
314 322 314 313 318 316 314 314 313 313 312 311 310 309 310 309 309 308 307 308 308 305 302 299 298 295 293 290 285 280 275 269 261 251 249 249 250 246 225 229 192 193 229 248
298 310 311 309 310 314 315 313 314 313 312 311 312 312 311 310 309 308 307 308 309 306 303 300 298 295 294 292 288 280 273 267 257 247 242 241 243 241 227 201 194 199 201 203
307 311 310 312 314 315 315 315 314 313 312 313 313 314 313 311 309 308 308 310 310 307 304 302 298 296 297 298 293 284 274 263 252 243 238 237 237 232 223 205 193 206 209 208
317 315 310 312 314 317 318 318 317 316 317 316 317 316 315 313 311 311 311 313 311 308 307 306 301 298 299 300 296 289 276 257 244 237 234 233 230 224 215 208 203 205 206 200
314 313 315 317 319 321 321 321 320 319 319 319 319 319 316 314 314 313 314 314 313 312 310 307 302 300 301 300 297 288 273 253 241 235 232 226 219 211 202 197 205 214 215 210
316 320 323 324 325 323 322 321 320 320 321 321 320 319 319 320 317 315 314 314 313 311 308 305 305 306 304 301 299 289 274 245 228 230 229 220 208 199 192 196 213 219 220 206
315 317 321 323 324 322 321 323 323 323 323 322 321 322 323 321 317 315 316 316 316 314 314 314 314 311 305 304 305 288 265 248 225 221 217 208 197 186 191 214 227 228 226 197
318 320 323 325 324 322 322 323 325 325 323 324 325 324 320 317 316 317 319 319 320 323 325 324 315 307 306 314 307 277 247 232 226 221 211 178 201 220 232 241 235 230 194 175
320 324 325 325 326 326 325 327 327 325 326 327 326 322 320 321 322 323 324 323 325 329 327 327 324 323 328 358 298 277 222 212 212 217 227 233 244 252 248 234 220 192 171 168
326 328 328 327 327 327 330 330 329 328 329 329 327 324 322 322 325 328 329 331 333 336 334 326 331 343 10 16 272 283 174 185 204 222 241 250 254 256 238 204 180 165 159 163
326 328 328 327 327 328 331 331 333 332 329 329 327 326 326 328 331 332 332 336 335 335 339 343 358 19 12 316 304 329 347 303 269 258 255 254 248 216 144 140 147 152 156 163
326 328 328 328 327 326 329 335 337 333 330 329 328 330 332 332 333 335 336 336 339 339 349 4 11 9 305 290 322 335 343 322 310 310 281 255 118 107 121 128 135 143 151 158
325 328 327 327 327 328 333 336 335 332 331 332 334 337 339 337 337 339 337 334 343 347 4 15 15 5 303 326 336 333 328 319 317 320 344 57 89 108 118 125 132 141 151 157
324 326 327 330 330 333 332 334 334 336 339 339 339 342 345 343 340 338 339 344 350 353 3 13 15 6 6 9 358 346 331 316 310 326 51 88 103 110 117 125 132 139 146 152
322 322 326 324 329 330 333 336 336 339 339 340 341 343 346 346 344 344 344 348 354 357 4 9 11 14 20 20 19 22 34 64 94 108 106 110 110 110 114 119 123 127 134 139
316 322 324 329 337 339 337 336 337 338 340 344 340 343 346 347 347 347 348 352 357 -0 3 7 9 12 18 22 27 35 50 71 92 105 107 107 108 110 115 117 118 123 128 132
Height
1499 1496 1498 1503 1508 1508 1508 1509 1508 1511 1520 1531 1534 1535 1534 1530 1526 1521 1516 1511 1506 1501 1497 1493 1490 1487 1483 1480 1476 1471 1467 1465 1463 1462 1459 1456 1454 1452 1450 1449 1448 1447 1447 1447
1502 1496 1499 1513 1520 1518 1522 1523 1522 1525 1532 1535 1535 1533 1529 1524 1519 1514 1509 1505 1501 1497 1492 1488 1484 1480 1477 1473 1469 1465 1461 1458 1456 1455 1453 1451 1450 1448 1446 1443 1441 1440 1439 1440
1502 1497 1503 1518 1534 1530 1532 1534 1530 1531 1534 1533 1530 1526 1522 1516 1510 1506 1503 1499 1494 1490 1486 1482 1478 1474 1470 1466 1463 1459 1456 1453 1451 1449 1448 1446 1444 1442 1440 1438 1434 1432 1432 1432
1503 1503 1512 1540 1536 1536 1535 1535 1533 1533 1532 1529 1524 1518 1515 1509 1503 1499 1496 1492 1487 1483 1478 1474 1470 1465 1461 1457 1454 1451 1448 1446 1444 1443 1441 1440 1438 1437 1434 1432 1429 1426 1425 1425
1508 1507 1522 1535 1535 1536 1534 1529 1530 1529 1525 1521 1516 1511 1505 1502 1500 1496 1491 1486 1480 1475 1470 1465 1460 1456 1452 1448 1445 1442 1439 1437 1436 1434 1433 1432 1431 1430 1429 1426 1423 1421 1419 1418
1514 1519 1519 1535 1537 1535 1530 1522 1527 1525 1520 1516 1512 1503 1497 1498 1495 1489 1484 1478 1472 1466 1461 1455 1451 1447 1442 1438 1435 1432 1430 1428 1426 1425 1424 1423 1423 1422 1421 1420 1418 1415 1413 1411
1520 1518 1529 1537 1535 1531 1527 1523 1524 1522 1518 1514 1509 1505 1498 1492 1486 1481 1475 1469 1463 1457 1451 1446 1441 1437 1431 1427 1424 1421 1419 1417 1416 1415 1414 1414 1414 1413 1413 1412 1411 1409 1407 1405
1524 1525 1532 1536 1533 1532 1531 1527 1523 1519 1515 1509 1504 1498 1492 1485 1479 1472 1465 1459 1454 1447 1441 1436 1432 1426 1420 1416 1413 1411 1408 1406 1405 1404 1404 1404 1404 1404 1404 1404 1403 1403 1401 1399
1534 1533 1535 1535 1535 1532 1529 1525 1520 1515 1510 1504 1497 1490 1484 1477 1470 1463 1457 1450 1444 1437 1430 1425 1421 1416 1409 1404 1402 1399 1396 1394 1393 1393 1393 1393 1394 1394 1395 1396 1396 1396 1395 1394
1535 1531 1534 1534 1531 1529 1526 1521 1516 1511 1505 1499 1491 1483 1476 1469 1461 1454 1448 1441 1434 1427 1420 1413 1409 1404 1398 1393 1389 1386 1383 1382 1381 1381 1381 1383 1384 1385 1386 1387 1388 1388 1389 1388
1534 1532 1533 1529 1528 1525 1521 1516 1511 1505 1500 1493 1485 1477 1469 1461 1453 1446 1438 1431 1425 1417 1409 1402 1396 1390 1385 1381 1377 1373 1371 1370 1369 1370 1371 1372 1374 1375 1377 1379 1381 1382 1383 1383
1535 1535 1533 1528 1525 1521 1516 1510 1505 1498 1491 1486 1479 1470 1462 1453 1445 1438 1429 1422 1414 1406 1398 1389 1383 1377 1372 1368 1364 1361 1358 1357 1358 1359 1360 1362 1364 1366 1368 1371 1374 1376 1378 1379
1538 1534 1531 1526 1521 1516 1511 1505 1499 1492 1485 1477 1470 1463 1455 1446 1437 1429 1421 1412 1403 1394 1385 1377 1370 1364 1359 1355 1352 1349 1347 1346 1347 1348 1350 1352 1355 1358 1360 1363 1366 1369 1372 1374
1535 1532 1527 1522 1516 1511 1506 1499 1493 1486 1479 1472 1464 1456 1447 1438 1429 1420 1411 1402 1392 1383 1373 1366 1358 1353 1348 1344 1341 1338 1336 1336 1337 1338 1341 1343 1346 1350 1354 1357 1360 1362 1365 1368
1532 1529 1524 1517 1512 1507 1501 1494 1486 1479 1472 1464 1457 1449 1440 1430 1420 1411 1401 1391 1381 1372 1363 1355 1348 1342 1339 1335 1332 1329 1327 1327 1328 1330 1333 1336 1339 1344 1347 1351 1354 1357 1359 1362
1528 1524 1519 1514 1508 1502 1496 1489 1482 1474 1466 1457 1449 1441 1432 1422 1412 1402 1392 1382 1371 1361 1352 1345 1339 1334 1331 1327 1324 1322 1321 1322 1323 1325 1327 1331 1335 1339 1342 1345 1348 1350 1353 1357
1524 1518 1514 1509 1504 1498 1491 1485 1478 1469 1461 1452 1443 1433 1423 1414 1403 1392 1382 1372 1362 1353 1344 1337 1332 1328 1325 1322 1320 1318 1318 1318 1319 1322 1324 1328 1331 1335 1338 1340 1341 1344 1346 1350
1521 1517 1512 1507 1501 1494 1486 1480 1473 1465 1457 1447 1437 1427 1417 1406 1395 1383 1372 1362 1353 1345 1338 1332 1327 1323 1321 1319 1317 1317 1317 1317 1319 1321 1324 1327 1329 1331 1333 1334 1335 1337 1339 1343
1517 1513 1508 1503 1497 1491 1483 1476 1468 1460 1452 1443 1433 1422 1412 1400 1389 1377 1366 1356 1347 1339 1332 1327 1323 1320 1319 1318 1317 1317 1317 1318 1319 1321 1323 1325 1327 1328 1329 1329 1330 1331 1334 1339
1514 1510 1505 1499 1493 1487 1480 1472 1465 1457 1448 1439 1429 1418 1406 1395 1384 1372 1361 1352 1344 1337 1330 1324 1321 1320 1319 1319 1318 1319 1319 1320 1321 1322 1323 1324 1324 1324 1324 1324 1325 1328 1333 1340
1510 1506 1501 1495 1489 1482 1476 1469 1462 1453 1444 1435 1426 1415 1403 1392 1381 1369 1359 1349 1341 1335 1329 1325 1323 1322 1322 1321 1320 1321 1321 1322 1322 1322 1322 1322 1321 1321 1321 1321 1324 1329 1336 1344
1507 1502 1497 1491 1485 1479 1473 1467 1460 1451 1441 1432 1423 1413 1402 1390 1379 1369 1359 1351 1342 1336 1331 1328 1326 1325 1324 1323 1324 1324 1324 1324 1324 1323 1322 1322 1321 1321 1322 1324 1328 1333 1340 1348
1503 1499 1494 1488 1482 1476 1470 1465 1457 1448 1439 1431 1422 1412 1402 1392 1381 1371 1361 1353 1346 1340 1336 1332 1330 1328 1327 1327 1327 1326 1326 1325 1325 1324 1324 1324 1324 1324 1326 1329 1333 1339 1345 1352
1499 1495 1490 1485 1480 1474 1468 1462 1454 1446 1438 1431 1423 1414 1404 1393 1382 1374 1366 1358 1352 1346 1341 1338 1335 1332 1331 1330 1330 1329 1328 1328 1327 1327 1327 1327 1328 1329 1332 1335 1339 1344 1350 1355
1495 1491 1487 1482 1478 1473 1467 1460 1452 1445 1437 1430 1422 1414 1405 1397 1388 1379 1371 1364 1358 1352 1348 1344 1341 1338 1335 1334 1332 1331 1330 1330 1330 1330 1331 1332 1333 1335 1338 1341 1345 1350 1354 1359
1492 1488 1484 1480 1476 1472 1466 1459 1453 1446 1438 1430 1422 1415 1407 1398 1390 1383 1376 1370 1364 1359 1355 1351 1348 1344 1342 1340 1338 1337 1336 1335 1335 1336 1337 1338 1340 1342 1345 1348 1352 1355 1359 1363
1489 1486 1482 1478 1475 1470 1465 1460 1453 1447 1440 1433 1425 1417 1409 1401 1394 1387 1381 1375 1370 1366 1362 1358 1355 1352 1350 1348 1346 1345 1344 1343 1343 1344 1345 1346 1348 1350 1352 1355 1358 1361 1364 1367